Theta_e
337 335 341 346 352 354 354 355 355 354 354 354 353 353 353 352 351 350 349 348 347 348 349 349 348 348 348 349 349 349 350 349 350 350 351 351 351 351 351 351 349 348 348 349 349 350 348 349 348 347 348 350 351 352 351 351 350 350 350 349 349 348 348 348 348 348 347 349 351 351 351 351 353 352 353 353 353 353 351 350 350 350 351 351 351
335 337 341 347 350 353 355 355 355 354 354 354 353 353 352 352 350 349 349 348 347 348 349 349 349 349 348 348 349 349 349 349 349 350 349 350 351 350 350 351 350 350 349 349 349 348 348 348 348 349 348 349 349 349 349 349 349 349 349 349 348 346 345 345 346 346 347 347 346 347 348 350 350 351 352 351 353 352 350 350 349 350 351 352 352
333 337 341 347 348 352 354 355 355 354 353 354 353 353 353 352 351 349 349 348 347 348 348 349 348 348 348 348 348 348 348 349 349 349 349 349 350 350 350 349 349 348 348 348 348 347 346 345 346 346 346 344 344 345 346 346 346 347 347 347 346 344 344 343 343 344 346 346 344 345 344 346 348 349 350 352 352 352 349 349 349 349 350 351 350
334 336 342 345 345 349 353 354 355 354 354 353 353 353 352 353 351 349 348 347 347 348 348 349 348 348 347 346 347 347 348 348 349 349 349 349 349 350 349 348 348 348 346 347 347 347 346 345 344 343 342 341 341 342 342 343 343 344 345 345 344 344 343 343 343 342 344 345 344 343 347 349 347 348 349 350 351 351 349 349 349 348 349 349 350
335 338 342 346 349 348 352 353 355 354 354 353 353 353 352 351 350 349 348 347 347 349 348 348 348 347 347 347 348 348 348 348 348 348 348 349 349 349 349 349 348 347 347 347 346 346 345 345 344 343 342 341 340 339 339 339 340 341 342 343 342 342 341 342 343 342 344 343 342 344 348 348 349 347 348 348 350 349 348 348 348 348 348 348 349
334 339 343 345 348 351 349 353 355 354 354 353 353 352 352 350 350 348 347 347 348 348 348 348 347 347 347 348 348 348 348 348 347 347 348 348 348 348 348 348 348 348 347 347 347 346 345 344 344 343 342 340 339 338 337 337 336 338 340 340 340 340 341 342 342 341 343 341 341 347 348 348 347 346 347 347 348 348 348 348 348 348 348 349 349
336 340 343 345 347 348 346 353 354 354 354 353 353 352 351 350 350 348 348 347 348 348 348 347 346 347 347 348 348 348 347 348 348 348 348 348 348 348 348 348 347 346 346 347 346 346 344 343 343 342 340 338 338 337 336 335 335 336 337 339 339 339 341 343 341 339 339 344 347 348 347 347 347 347 347 349 348 347 347 348 348 348 347 346 347
337 340 343 344 347 346 344 352 354 354 353 353 353 352 351 350 349 348 348 347 348 348 348 347 346 346 346 348 347 348 347 348 347 347 347 347 348 348 348 347 347 346 345 347 346 345 344 342 341 340 339 337 336 335 334 334 333 333 335 336 337 339 341 341 341 338 339 344 345 346 346 346 347 347 347 346 345 345 346 346 347 346 346 345 343
337 340 342 344 347 343 344 349 353 354 353 353 353 352 352 350 350 349 348 347 347 348 348 347 347 347 347 348 347 348 348 348 347 347 347 347 348 347 347 346 346 346 345 345 345 344 342 341 340 339 337 335 334 333 331 331 331 331 333 334 336 340 340 340 338 337 340 343 344 345 346 345 345 345 345 346 346 345 344 343 343 343 343 342 343
337 339 341 344 347 341 342 347 353 354 353 353 353 352 351 350 350 348 347 347 347 347 347 347 347 347 347 348 348 348 348 347 347 347 346 347 347 347 347 346 345 344 344 344 344 342 340 340 339 338 337 335 333 331 330 328 328 330 331 332 336 339 340 339 337 336 340 342 343 344 346 345 345 345 345 345 345 345 343 342 342 341 342 343 342
335 339 341 343 345 340 345 348 351 352 353 353 353 352 351 350 349 348 348 348 348 348 348 347 348 347 347 348 348 348 347 347 347 346 346 346 346 346 346 346 345 344 343 342 343 341 340 340 340 338 336 333 332 330 328 327 327 328 330 332 336 338 339 337 337 340 341 343 344 344 344 343 345 345 345 345 345 343 343 343 342 342 342 342 341
333 335 339 342 338 339 343 347 350 352 351 352 353 352 351 351 350 348 348 348 348 347 348 348 347 347 347 347 348 347 347 347 347 346 346 346 346 346 346 345 344 343 342 341 341 340 339 341 339 337 334 332 330 328 327 327 328 327 330 332 335 336 337 336 339 341 342 343 343 343 344 343 344 343 343 345 344 342 341 341 341 340 341 340 341
334 336 337 340 342 337 341 345 347 351 351 352 352 352 351 351 349 348 348 348 347 347 347 349 347 347 347 347 347 347 347 347 347 347 346 346 346 345 345 344 343 342 341 340 340 339 339 340 339 336 334 331 328 326 325 325 327 327 329 332 334 334 335 335 339 340 340 341 341 342 343 344 344 342 342 342 342 341 340 339 339 338 338 337 338
334 337 338 339 341 335 337 342 344 348 350 351 352 351 351 351 349 349 348 348 348 348 348 349 348 348 349 348 347 347 347 347 347 346 345 344 344 343 344 343 342 341 340 340 339 339 338 341 338 335 332 330 327 324 324 324 325 326 329 332 331 331 328 331 333 336 338 338 338 338 341 343 343 342 341 341 340 339 338 337 337 336 336 336 336
333 336 338 340 340 341 334 338 340 343 346 349 350 349 351 351 350 349 349 349 348 349 349 349 349 349 349 348 347 347 347 346 346 346 345 344 344 344 344 343 342 341 341 340 339 338 340 339 336 334 332 329 326 325 324 323 323 324 329 330 329 327 325 332 331 332 335 335 334 334 338 341 341 339 339 339 338 338 336 336 336 335 334 334 333
334 335 338 339 340 341 341 336 335 339 340 344 346 347 348 348 349 349 349 348 348 348 348 348 348 348 349 348 349 347 347 346 346 345 345 344 344 343 343 342 342 341 339 338 338 339 338 337 334 332 330 329 327 324 323 322 323 324 328 328 327 325 322 326 330 330 332 334 333 333 336 339 339 338 338 337 336 335 335 334 334 333 332 332 331
333 335 336 337 339 340 341 341 339 333 335 337 339 342 344 346 347 348 347 347 347 347 347 347 347 347 348 347 347 346 345 346 346 345 344 343 342 342 341 342 340 338 337 337 338 338 336 334 332 330 329 327 326 324 322 322 322 324 327 327 325 323 321 322 328 329 329 329 331 331 334 338 338 338 336 334 334 334 333 332 332 333 331 330 331
330 333 335 337 337 339 340 341 342 343 344 339 334 336 340 343 344 345 344 344 344 345 345 344 345 344 344 342 341 341 342 343 344 344 344 342 342 343 342 341 338 337 337 336 337 336 334 332 331 329 328 326 325 323 322 321 321 323 325 325 324 321 319 318 326 329 328 329 332 332 335 336 335 336 337 336 333 332 332 332 332 331 330 329 328
325 330 334 335 336 337 339 340 341 343 344 344 344 342 334 338 340 340 340 342 342 341 340 341 340 340 340 338 337 335 335 337 336 338 340 338 337 334 338 340 338 337 336 336 336 335 333 331 330 329 327 326 323 321 319 319 320 322 324 322 319 318 315 321 325 327 327 329 331 332 334 337 333 334 335 335 334 333 332 331 330 328 328 326 329
319 327 331 333 334 336 337 339 341 342 344 344 344 344 335 332 336 338 338 339 338 338 337 338 334 333 332 332 332 335 332 337 329 337 333 335 332 334 333 339 339 336 336 335 335 334 332 331 329 328 326 324 321 318 319 320 320 321 322 320 316 313 322 322 323 325 326 327 327 330 333 334 333 334 333 332 333 332 331 329 328 326 326 328 328
317 324 326 330 332 334 336 337 340 341 343 343 343 343 342 330 334 332 332 334 335 334 335 331 327 327 327 326 327 339 340 341 337 341 327 337 323 326 331 336 337 337 337 335 334 333 331 330 328 327 325 321 316 314 312 313 316 317 318 315 311 320 318 321 323 323 323 323 325 329 331 333 330 333 334 329 329 329 329 328 326 328 328 328 326
314 317 321 327 330 333 334 336 338 340 342 342 343 343 343 337 344 343 339 336 333 331 335 341 330 338 324 330 336 339 340 338 338 330 335 332 328 323 326 331 335 334 333 335 334 332 331 329 328 327 322 317 310 308 305 305 308 309 310 309 316 317 317 319 321 320 321 318 319 325 331 331 329 330 330 330 329 328 327 325 326 325 325 324 326
308 312 316 319 327 331 333 334 336 339 340 342 342 343 343 342 343 343 342 335 337 338 340 338 337 337 337 338 335 340 338 337 335 333 332 324 329 323 325 329 331 330 330 332 334 332 330 329 328 324 317 311 307 305 302 304 305 302 304 311 314 315 315 316 317 317 317 313 316 321 328 332 329 329 330 329 328 327 325 326 327 326 325 326 323
304 306 307 312 317 326 331 334 335 337 339 340 341 343 343 342 341 343 343 342 340 340 341 339 337 335 335 336 337 338 337 337 325 322 325 329 327 321 323 324 324 324 324 329 329 331 330 328 324 318 310 306 304 300 301 303 303 303 305 307 311 311 314 314 316 316 315 314 316 319 325 330 332 328 329 329 328 326 325 326 325 326 325 325 325
303 304 306 307 310 317 327 332 335 337 338 338 340 341 342 342 342 340 340 344 343 341 340 339 339 336 336 337 337 337 338 337 334 334 334 331 328 328 329 332 333 333 323 330 330 329 323 320 318 311 309 308 304 300 301 302 302 303 302 303 307 310 312 313 313 315 316 315 316 315 321 325 329 330 328 328 327 325 325 327 326 325 325 326 325
303 304 306 306 308 310 318 329 333 335 337 338 339 340 340 341 341 341 341 340 338 336 339 339 337 337 336 337 336 336 335 333 332 330 328 331 330 329 330 329 332 331 329 328 326 324 319 316 314 312 306 303 302 301 301 300 301 302 302 302 302 306 309 311 311 313 312 312 314 312 318 320 325 329 330 328 326 326 325 327 326 326 325 323 324
303 306 308 309 309 308 313 324 330 334 335 338 339 339 339 339 341 342 341 340 340 338 336 335 337 338 338 337 336 334 333 333 332 332 329 328 327 325 324 327 329 328 324 326 321 318 318 315 313 308 303 304 302 302 301 300 300 302 302 302 301 302 304 308 309 310 310 310 309 307 314 319 322 326 329 329 327 325 325 327 325 325 326 324 323
306 307 309 310 311 310 310 318 327 332 334 337 338 338 339 338 338 337 339 337 337 338 335 333 334 335 335 335 336 335 332 332 331 329 329 329 330 328 325 323 323 323 322 323 318 314 315 313 310 304 304 303 304 303 303 302 301 301 303 302 302 301 301 302 305 308 308 309 309 307 310 316 318 322 325 328 329 328 328 325 326 325 326 326 325
304 306 309 311 312 311 310 316 325 330 334 336 336 337 337 338 337 338 339 332 339 340 338 332 332 330 329 330 333 334 332 332 331 329 328 327 323 323 323 321 320 318 320 317 317 315 314 313 311 307 304 304 304 304 303 302 302 301 301 302 302 301 301 301 302 304 306 307 307 307 309 312 315 319 322 325 327 329 331 332 328 326 324 325 325
303 306 308 310 312 314 313 317 323 328 333 335 335 336 336 336 337 336 336 333 340 339 335 333 331 329 327 327 327 330 333 332 329 326 327 324 322 319 319 319 321 320 318 318 315 317 315 312 310 307 304 304 305 302 302 303 301 301 301 302 302 300 300 300 301 301 303 305 306 307 305 307 312 316 318 320 324 326 328 331 333 332 331 327 325
304 305 307 309 312 315 314 314 320 324 330 333 334 334 334 333 331 335 334 331 331 332 331 331 330 328 327 325 326 326 329 329 326 324 325 324 321 321 322 321 322 321 320 317 314 317 315 315 313 309 307 304 303 301 302 303 302 301 299 301 301 300 300 300 300 300 301 303 305 306 307 304 306 309 314 317 320 323 326 328 330 332 333 332 333
301 303 305 309 312 314 316 316 320 324 326 331 329 332 332 331 330 331 331 330 330 328 328 330 327 328 327 323 322 325 328 328 325 322 321 321 320 319 320 320 322 319 319 318 315 314 313 310 309 307 305 306 305 303 301 304 303 300 299 300 299 300 300 299 300 300 301 302 303 305 305 305 303 307 309 312 317 319 322 324 327 329 330 331 332
300 302 305 308 310 312 315 317 321 323 326 326 327 329 330 331 330 330 328 327 325 324 323 323 323 323 322 322 322 320 320 320 322 322 317 319 318 318 318 318 319 317 316 315 313 311 310 309 307 306 306 306 308 308 304 303 305 303 299 299 299 300 299 298 299 299 301 301 302 302 304 305 306 305 305 308 311 315 319 321 323 326 328 329 330
298 300 304 305 308 311 314 315 317 318 319 321 321 321 322 320 319 320 319 321 320 319 319 319 319 319 318 318 317 317 318 318 318 317 318 317 316 316 316 315 314 314 314 315 315 314 313 312 309 310 308 308 309 306 306 308 305 301 301 299 298 299 298 298 298 299 299 300 300 301 303 304 305 306 307 305 307 310 315 318 320 322 324 326 328
297 298 300 304 307 309 312 314 315 316 318 318 317 316 316 316 316 316 316 316 316 316 316 316 316 316 317 316 317 316 316 316 316 316 315 316 315 313 313 311 310 310 311 311 312 311 311 311 308 312 308 307 305 304 303 304 302 302 301 298 298 298 297 298 298 298 298 299 298 300 301 303 304 304 305 306 304 305 309 314 317 320 322 324 325
296 296 298 302 305 306 309 312 315 316 316 315 316 315 315 314 313 311 312 312 312 311 312 312 313 313 313 313 313 313 314 315 316 316 315 315 314 312 310 310 310 310 308 309 310 308 307 306 302 304 308 309 307 308 303 302 301 300 299 298 297 297 297 297 298 298 298 297 298 299 300 301 303 304 303 306 306 305 305 309 313 317 318 318 320
295 296 296 299 301 303 304 308 310 313 314 314 314 313 312 310 309 308 307 307 307 307 307 307 308 308 309 309 310 310 311 312 313 313 313 312 312 310 310 310 310 309 309 309 308 307 307 306 301 300 302 304 304 303 304 302 300 299 298 298 298 297 297 298 297 297 297 297 298 298 298 300 301 301 304 304 304 305 303 305 309 312 311 312 316
295 295 296 297 298 299 300 302 305 309 311 311 310 309 308 307 306 304 303 301 301 301 301 301 302 303 303 304 305 306 307 308 309 310 310 309 309 308 308 309 309 309 309 308 306 306 306 306 305 300 300 301 301 301 301 300 298 298 298 298 298 296 297 297 297 296 297 297 297 297 298 298 299 301 301 302 303 303 304 304 303 305 305 308 313
294 294 295 296 297 298 299 299 300 303 305 306 307 307 305 304 303 301 300 299 298 298 297 297 297 298 298 298 299 301 302 304 305 306 307 307 306 306 306 307 308 308 307 305 304 304 304 304 307 305 299 299 301 299 299 297 297 297 297 297 297 297 297 296 296 296 296 296 296 297 297 298 298 298 299 299 301 301 302 303 304 305 307 304 309
293 293 294 294 295 296 297 297 298 300 302 302 304 302 301 300 299 298 297 296 296 295 295 294 295 295 295 295 296 297 298 299 301 302 303 303 304 305 305 307 307 306 305 304 304 304 304 304 302 302 302 300 296 296 296 296 296 296 297 297 297 296 296 296 295 295 295 295 296 295 296 296 296 297 297 298 299 299 300 301 302 303 304 304 304
292 292 293 293 293 293 295 295 296 298 298 298 298 299 299 297 296 295 294 294 294 294 293 293 292 293 293 294 294 294 295 296 297 298 299 299 300 300 301 302 304 303 302 301 301 299 299 300 299 299 299 300 300 296 295 295 297 300 297 298 298 297 295 295 294 295 296 296 295 294 294 295 296 296 296 296 297 298 298 300 301 301 302 303 303
290 291 291 292 292 293 293 294 295 296 296 297 297 296 296 296 294 293 293 292 292 291 291 291 291 291 291 292 292 293 293 294 295 296 296 297 297 297 297 297 298 299 299 299 298 297 297 297 298 298 298 296 298 295 295 297 299 294 294 295 297 298 297 293 295 295 296 295 294 294 294 295 295 295 295 295 296 296 297 298 299 300 301 301 302
289 289 291 291 292 292 292 293 294 295 295 296 296 295 295 296 295 294 293 291 292 291 290 290 290 289 289 290 290 291 292 292 293 294 294 294 295 295 295 296 296 297 296 296 296 296 296 295 296 295 296 298 295 295 295 295 295 294 293 293 294 294 299 296 294 294 296 293 293 294 295 295 294 294 294 295 295 296 296 296 297 298 298 299 300
288 288 289 290 291 291 291 292 292 293 294 295 295 295 294 294 293 293 292 291 290 290 289 289 289 288 287 288 289 289 289 290 291 292 292 293 293 293 294 294 294 295 295 294 294 294 294 294 295 295 295 294 295 296 294 294 293 293 294 292 292 289 293 294 290 295 293 293 293 295 294 294 294 294 294 295 296 295 295 295 295 296 296 297 297
286 287 288 289 289 290 290 291 291 292 292 293 294 294 294 293 292 291 291 290 289 288 288 287 287 287 287 287 287 288 288 288 289 289 290 290 291 292 292 292 293 293 294 293 293 293 293 293 293 294 293 292 293 293 295 295 294 294 291 291 292 293 292 290 290 295 292 295 296 295 294 294 295 294 294 295 295 294 294 294 295 295 295 295 295
286 286 287 288 288 289 289 290 290 291 291 291 292 292 291 291 290 288 286 286 285 285 284 284 285 285 285 287 287 288 288 288 288 288 289 289 289 289 290 290 290 291 291 292 292 292 292 292 292 293 293 293 292 293 292 294 293 293 293 292 291 289 287 289 290 290 294 295 292 292 294 294 293 293 293 293 294 295 293 294 295 295 295 295 295
285 286 286 286 287 288 288 289 289 289 290 289 290 289 288 287 286 286 286 285 284 284 286 286 286 286 287 286 287 287 288 288 288 288 288 288 288 288 288 289 289 289 289 290 289 290 291 291 292 292 292 292 293 292 291 291 294 294 293 293 292 291 290 288 287 288 287 292 293 294 294 295 293 292 293 294 294 294 294 294 294 295 295 295 294
284 285 285 286 286 286 287 287 288 288 288 288 288 288 287 287 286 286 286 285 285 284 285 285 287 287 286 286 286 286 287 287 287 287 288 288 288 287 288 288 288 288 288 288 288 289 290 290 291 291 291 291 291 291 291 291 289 291 291 291 291 292 291 290 290 287 286 284 288 293 292 294 293 293 293 294 294 294 294 294 294 294 294 294 294
284 284 284 285 285 286 286 286 286 286 287 288 287 287 287 286 286 286 285 285 285 285 286 286 286 286 285 286 286 286 286 287 287 287 287 287 287 287 287 287 287 287 287 287 288 288 288 288 288 289 289 289 289 290 290 289 290 289 290 290 291 290 291 290 288 288 286 286 287 289 289 291 292 293 293 294 293 293 293 293 294 293 293 294 294
283 284 284 284 285 285 285 285 285 286 286 286 286 286 287 287 286 286 285 284 285 285 286 285 285 286 285 285 286 285 286 286 286 287 287 287 287 287 286 286 286 286 286 286 287 287 287 287 287 288 288 287 288 288 288 288 289 289 289 289 289 289 290 290 290 289 288 288 285 285 286 286 286 290 292 293 294 294 294 294 293 294 293 294 294
283 283 284 284 284 284 284 284 284 285 286 286 286 286 286 286 286 285 285 284 285 285 285 284 285 285 285 285 285 285 286 286 286 286 286 286 286 286 286 286 286 286 286 286 286 286 286 286 287 287 287 287 286 287 287 287 287 287 288 288 287 287 287 286 287 288 287 286 286 287 287 287 287 287 290 291 292 293 293 293 293 293 294 294 294
Wind_Speed
10 5 4 9 9 10 14 14 14 14 14 13 13 12 13 12 12 11 11 9 10 9 9 10 9 9 10 10 9 10 9 9 10 10 9 9 10 10 10 12 13 13 13 14 14 14 15 14 14 13 13 14 16 16 15 15 15 15 14 15 15 14 14 15 14 14 12 12 13 13 12 12 12 11 12 13 13 13 12 11 9 8 7 9 11
9 7 4 9 9 9 12 14 14 14 14 14 13 12 12 12 11 11 11 10 10 10 10 10 9 9 10 10 9 9 9 9 9 9 8 9 10 10 10 13 12 13 14 15 15 15 14 14 14 14 14 14 15 15 15 15 14 14 13 13 13 13 13 14 13 13 12 12 11 11 10 12 12 12 13 13 13 13 12 11 10 7 7 11 12
1 7 5 9 8 9 11 13 14 14 14 14 14 13 12 10 10 11 11 10 10 10 10 10 10 10 10 10 9 9 9 9 9 8 9 9 10 10 10 11 12 12 14 14 15 14 14 14 14 14 14 14 14 14 14 14 13 12 12 12 11 11 11 12 12 11 11 11 11 9 9 9 11 12 13 14 14 14 13 12 11 10 8 12 11
6 7 6 8 9 9 10 12 13 13 13 13 13 11 12 10 11 11 10 10 10 10 11 10 10 9 9 9 9 9 9 8 8 8 8 8 9 10 10 10 12 13 14 15 14 14 14 14 14 14 14 14 13 13 13 12 11 10 10 10 9 9 9 9 9 9 9 8 8 7 5 6 8 11 11 13 14 15 12 13 13 14 13 13 14
7 7 7 8 9 9 10 11 12 12 12 13 12 12 12 11 12 11 10 9 10 10 11 11 10 9 9 9 9 9 8 8 8 8 8 8 9 10 11 10 12 13 13 14 15 14 13 13 13 13 13 12 12 12 12 11 10 10 9 9 9 9 9 8 8 7 7 8 7 5 5 6 5 10 10 12 14 13 12 14 14 15 14 15 15
8 7 7 7 9 10 10 10 12 13 14 13 13 12 12 11 12 11 11 10 10 10 10 10 10 9 9 9 9 9 8 8 8 8 7 7 8 9 10 11 11 11 12 13 14 13 12 12 12 13 13 12 12 12 11 11 10 9 9 8 8 8 8 8 8 6 6 6 5 4 5 7 7 6 11 11 12 12 12 14 15 15 15 15 14
8 7 6 8 9 9 9 10 13 12 13 13 13 13 12 12 11 11 11 11 10 11 10 10 10 9 9 9 9 8 8 8 8 7 7 7 8 9 10 10 11 10 9 11 13 12 11 11 11 12 12 11 12 11 11 10 10 10 9 8 7 7 6 7 6 5 5 3 3 3 5 6 7 5 11 11 12 12 14 14 15 14 15 14 14
5 5 7 6 9 7 8 10 13 12 14 13 12 12 12 12 11 10 11 10 11 11 10 10 9 9 9 8 8 8 8 8 7 7 7 7 7 9 9 10 10 9 9 12 12 12 11 10 11 11 11 11 11 10 10 10 9 9 8 7 7 6 6 5 6 5 5 3 4 4 5 5 6 6 10 11 12 13 13 14 13 13 14 14 11
6 6 5 6 9 9 8 9 11 11 14 13 11 11 11 12 10 9 11 10 10 11 11 10 9 9 9 8 8 8 8 8 8 7 7 7 8 9 10 10 9 8 9 9 10 11 10 9 9 10 10 10 10 9 9 9 8 8 7 7 6 6 5 5 6 6 4 4 4 4 4 5 6 6 9 11 12 13 13 10 10 12 13 12 11
5 5 5 5 6 9 8 8 10 11 12 11 11 10 12 12 11 11 11 10 11 10 10 10 9 9 9 8 7 7 7 7 7 8 7 7 7 9 10 10 9 8 7 8 9 9 7 8 8 8 9 9 9 9 8 8 8 7 7 6 6 5 5 5 6 5 4 4 4 5 5 4 5 5 8 10 12 12 11 9 8 8 8 9 11
4 5 4 4 5 7 8 8 8 10 11 10 10 10 12 12 11 11 11 10 11 10 10 9 9 9 9 8 7 7 6 6 6 6 6 7 8 8 11 10 9 8 9 8 9 8 6 6 7 8 9 9 9 9 8 7 7 7 7 6 6 5 5 5 5 4 4 5 5 4 5 3 4 4 7 9 11 11 9 8 8 9 9 10 11
5 3 3 3 4 6 7 7 7 9 10 9 9 10 11 10 10 11 10 10 11 11 9 9 9 8 8 7 7 6 6 6 7 7 7 7 8 9 10 10 8 8 8 9 8 8 6 6 7 8 9 9 9 9 8 7 7 7 7 6 6 5 5 5 4 5 5 5 5 4 4 4 4 5 7 9 10 10 9 9 9 10 10 10 10
4 3 3 3 3 4 6 7 6 8 9 8 9 12 11 10 10 10 10 10 11 10 9 7 8 8 7 6 6 5 6 7 8 8 7 7 9 10 9 8 6 9 9 8 7 7 6 7 9 8 8 9 9 8 8 7 7 7 6 6 6 6 5 5 4 4 3 3 3 2 2 3 3 3 6 8 8 8 9 9 9 9 9 9 9
5 6 3 3 2 4 6 6 6 6 8 8 9 10 9 11 11 10 10 10 9 8 8 6 6 6 5 4 5 5 6 7 8 8 8 7 7 7 9 9 9 8 7 6 6 5 6 11 9 8 8 8 9 8 8 7 7 7 6 7 7 7 4 4 4 3 3 3 3 2 2 0 2 1 5 6 7 7 7 8 8 8 9 9 8
7 7 6 5 4 4 6 6 5 6 7 8 8 8 9 9 9 9 9 8 8 7 6 6 5 4 3 4 4 4 6 7 7 8 8 9 8 8 8 8 8 8 6 6 5 7 10 9 9 8 8 8 8 8 7 7 7 6 6 6 7 6 5 4 2 2 3 3 2 2 2 1 3 1 4 5 5 5 5 6 7 7 8 8 8
6 7 6 6 6 4 5 5 6 5 6 7 7 8 8 8 9 8 9 8 7 7 6 4 5 3 3 2 2 4 5 6 7 8 8 8 9 7 7 7 7 7 7 6 8 9 10 10 9 8 8 7 7 8 7 6 6 6 6 6 6 6 5 4 2 2 2 2 2 2 2 2 7 1 2 3 3 4 4 4 5 6 6 6 6
4 3 6 7 6 7 5 5 5 5 4 5 6 7 7 7 8 8 8 7 7 7 6 5 5 4 3 2 2 3 3 3 4 7 8 7 6 7 6 7 8 8 7 7 9 10 10 9 9 8 7 7 7 7 6 6 6 6 6 6 6 6 5 4 2 2 2 1 2 2 2 2 6 6 4 3 3 5 4 4 4 5 5 5 6
2 1 4 4 3 4 4 5 6 5 5 3 4 6 8 6 8 8 7 7 6 6 6 5 4 4 2 1 2 3 4 4 5 7 7 6 5 5 5 8 8 7 7 8 10 10 9 9 8 7 7 7 7 7 6 6 6 6 6 6 6 6 5 4 2 2 3 2 3 2 2 5 4 3 8 10 5 4 4 4 6 5 5 4 4
4 2 1 2 5 4 4 4 6 6 6 4 4 4 6 7 7 7 8 7 7 6 6 6 5 3 3 2 3 4 5 5 6 7 7 6 6 7 7 6 7 7 8 9 10 9 8 8 7 7 7 8 8 9 8 6 6 6 6 6 5 5 5 3 2 3 2 1 1 3 3 6 4 1 3 6 5 4 3 5 5 4 3 3 4
2 3 2 2 2 4 4 4 4 6 5 5 4 4 4 7 7 7 8 7 7 6 6 5 5 4 3 3 3 4 3 4 7 5 8 8 8 6 6 6 7 8 7 8 11 8 7 7 6 7 8 9 9 9 9 9 7 6 6 6 5 4 2 2 2 2 1 2 2 2 4 6 3 4 2 2 3 4 4 4 4 3 1 2 5
4 2 2 3 2 3 5 5 5 5 6 5 4 5 4 6 5 6 7 8 7 6 6 6 5 3 3 3 4 2 2 4 4 3 4 7 9 9 7 7 7 6 6 8 10 8 6 6 6 7 9 9 8 8 8 9 9 9 7 6 4 2 2 2 2 2 2 2 2 2 7 5 3 4 7 0 2 2 3 3 2 2 3 4 4
6 5 3 3 4 3 5 5 5 7 6 4 4 4 4 5 6 5 4 5 5 5 5 4 4 4 4 2 2 2 3 2 3 3 3 4 8 10 8 8 8 7 5 6 7 8 7 6 7 9 9 9 8 4 4 5 8 8 7 6 3 2 2 2 2 2 3 3 3 4 9 6 3 4 4 4 4 3 3 2 1 2 2 1 2
8 7 6 5 5 5 5 6 7 7 7 6 4 5 5 5 5 5 4 5 8 8 5 4 3 5 5 5 3 4 3 3 3 3 3 1 5 12 10 9 8 3 9 4 6 7 6 5 8 9 8 8 5 3 2 3 3 6 5 4 2 2 2 2 2 2 3 2 3 7 9 8 4 3 4 2 1 2 1 1 1 0 1 3 1
8 6 8 7 5 5 6 7 8 8 8 7 5 4 5 5 4 6 6 4 4 6 8 6 4 3 3 2 3 4 4 3 5 8 6 3 2 5 10 10 5 8 7 4 7 7 7 8 9 8 4 2 2 2 2 2 2 3 3 3 2 3 3 3 2 2 2 3 3 9 10 10 7 4 3 2 1 1 1 2 1 4 1 0 1
7 8 6 6 7 6 6 6 7 7 8 7 6 5 5 5 5 2 3 6 6 5 5 6 7 6 6 5 5 5 5 4 4 4 5 5 5 4 4 5 4 4 7 5 5 5 4 4 3 3 2 2 3 2 2 2 2 3 3 3 3 3 2 2 2 2 3 3 4 10 10 11 10 6 4 3 2 1 2 3 1 1 2 4 5
6 6 8 8 7 7 7 6 7 7 7 7 7 4 5 5 4 6 4 1 3 3 4 6 5 7 5 5 5 5 4 4 5 5 4 4 5 4 5 3 3 5 5 4 5 6 4 3 3 2 2 2 2 2 2 2 2 2 3 3 3 3 3 2 2 2 3 3 4 9 9 10 10 9 6 5 2 1 2 4 1 3 4 1 4
7 8 9 8 8 6 6 6 6 6 7 5 6 5 4 4 6 6 6 7 8 3 1 0 3 6 7 7 6 5 5 5 6 7 7 5 5 4 2 3 5 3 2 2 4 4 3 4 3 2 2 2 2 2 2 3 2 2 2 2 3 3 3 3 3 3 2 2 3 8 8 9 10 10 8 7 5 2 3 5 5 5 7 4 4
8 11 9 8 9 9 5 5 6 6 5 5 6 6 4 3 5 5 6 6 6 4 3 2 1 3 6 5 6 7 7 7 6 4 5 7 4 3 2 2 4 3 2 2 4 3 3 3 5 3 2 2 2 2 2 2 2 2 2 2 2 2 3 2 2 3 2 2 3 5 9 9 10 10 10 9 7 8 7 5 6 7 8 7 5
10 11 9 9 10 8 6 3 5 5 4 4 5 3 4 4 2 4 6 4 3 4 3 2 1 2 2 2 3 6 5 5 5 5 3 3 4 4 3 2 5 4 3 3 3 2 1 1 3 4 2 2 1 2 1 2 1 2 2 2 2 2 2 2 2 3 2 2 2 4 7 9 10 10 10 10 11 11 9 9 8 9 6 4 8
10 10 9 8 9 9 5 2 3 4 3 5 3 4 4 3 5 2 1 4 6 5 3 2 2 3 2 2 1 2 5 6 4 3 5 4 4 6 5 4 4 5 6 6 4 4 3 2 3 3 2 1 1 1 1 1 2 2 2 1 1 1 1 1 2 2 2 2 2 3 4 7 8 10 11 11 11 11 11 9 11 9 10 8 9
10 11 10 9 8 8 6 2 1 0 1 2 4 3 3 4 2 5 4 2 3 3 3 4 4 3 2 4 3 2 1 3 3 2 4 6 3 4 4 3 3 3 4 5 5 4 3 2 2 3 2 2 1 1 1 1 1 1 1 1 1 1 1 0 1 1 1 2 2 2 3 5 6 8 10 11 11 11 12 12 11 11 12 12 15
11 12 9 9 9 9 7 4 4 4 2 6 3 3 6 4 4 3 4 5 5 5 3 6 8 6 5 5 5 3 2 2 3 4 1 0 4 5 3 3 2 2 2 3 4 4 4 4 4 4 3 2 2 1 1 1 1 1 1 1 1 1 1 1 1 1 1 1 1 1 2 2 4 5 7 9 10 11 12 13 13 12 12 12 13
7 9 9 9 11 9 8 7 6 6 6 7 4 5 4 6 6 8 6 7 8 8 10 10 8 7 7 7 6 6 6 5 5 5 5 4 5 5 3 2 3 3 3 4 5 4 5 5 3 3 3 2 1 1 1 0 1 1 1 1 1 2 1 2 2 2 2 1 1 1 1 2 2 3 4 6 8 9 11 11 12 13 13 12 13
7 7 10 12 8 7 6 7 8 9 9 7 10 9 7 8 8 9 11 11 10 10 9 8 8 8 8 9 7 7 6 7 6 6 5 5 6 6 5 4 4 4 4 3 3 2 3 2 2 1 1 1 1 1 1 2 1 1 1 1 1 2 1 2 2 2 2 2 1 1 1 1 1 2 2 3 5 8 9 10 11 12 12 13 12
7 8 11 10 10 10 8 7 9 10 12 12 9 11 13 12 11 11 10 10 10 9 9 9 9 8 8 9 8 7 7 7 6 7 7 7 7 6 4 4 4 5 5 4 4 3 3 4 3 3 2 2 2 2 2 2 3 3 3 2 2 2 2 3 2 3 2 2 1 2 1 1 1 1 2 1 2 4 6 9 10 11 11 12 13
10 8 8 8 11 12 11 11 11 12 11 11 12 12 11 11 11 10 10 11 11 10 10 10 9 9 9 9 10 8 8 7 7 6 7 7 6 6 3 4 5 5 5 4 5 4 4 5 5 4 5 4 5 4 2 3 3 4 3 3 3 3 3 3 3 3 2 2 2 2 1 2 2 1 2 1 2 2 5 7 9 10 10 11 12
9 10 9 9 11 12 12 13 12 11 12 12 13 12 12 13 12 11 11 11 10 8 9 9 9 9 9 10 10 8 9 11 9 8 8 7 5 6 6 6 6 6 5 4 4 3 4 5 5 5 4 0 2 3 2 2 3 4 4 4 3 3 4 3 3 3 2 3 2 2 2 2 2 2 2 1 1 1 2 5 7 8 9 9 11
9 10 9 8 8 8 8 8 9 11 10 11 11 11 11 12 11 11 13 14 12 10 9 9 10 9 9 9 8 8 9 9 9 8 6 7 6 7 6 6 5 6 5 4 4 3 3 3 3 2 1 2 2 1 2 1 1 2 3 4 5 3 4 4 3 3 3 4 2 3 3 2 2 2 2 2 2 2 2 3 5 5 5 7 9
8 9 10 8 8 9 8 9 9 8 7 7 11 10 12 12 11 12 13 12 10 10 9 11 9 9 10 10 10 10 10 10 9 8 8 7 8 8 7 7 6 5 4 4 4 5 5 4 3 2 1 1 2 1 2 2 2 2 3 4 3 5 4 3 3 3 3 3 3 3 2 3 2 2 3 2 2 3 2 3 3 3 3 5 8
8 9 10 11 10 10 7 9 10 7 7 8 6 8 9 9 9 9 12 10 9 10 12 10 9 11 10 11 11 11 11 11 11 9 9 8 8 7 7 7 6 6 7 7 6 5 4 5 5 4 4 2 2 2 1 2 2 3 3 3 3 4 5 3 3 2 3 3 3 2 3 2 2 2 2 2 2 3 3 2 2 3 3 4 6
10 10 10 11 11 8 9 11 7 7 7 7 8 7 8 8 10 11 10 8 9 9 11 9 10 10 11 11 12 11 11 12 11 11 10 9 8 8 8 8 6 6 5 5 4 6 6 5 3 3 4 4 2 2 2 2 3 3 1 3 4 2 5 2 2 2 2 3 2 2 2 3 2 2 2 2 3 2 3 3 3 3 3 3 4
10 10 11 9 8 9 10 7 7 9 9 8 8 10 8 8 10 8 9 8 9 10 10 10 9 8 11 11 11 10 10 10 9 8 9 9 8 8 9 9 8 8 8 9 10 8 7 7 5 4 2 3 4 4 4 4 2 4 6 5 2 3 1 1 1 1 3 2 2 1 1 2 2 2 2 2 2 2 3 3 3 3 3 3 4
7 8 6 8 10 9 7 7 7 8 8 7 8 9 8 7 9 7 8 10 9 8 8 7 8 11 11 11 10 10 11 11 11 11 10 10 10 10 9 8 10 8 9 9 9 10 9 9 8 7 6 3 1 2 5 6 5 3 2 3 3 6 1 1 1 3 4 1 1 1 1 2 2 2 2 2 3 3 3 2 4 3 4 4 4
6 7 8 8 7 7 8 8 8 7 6 7 9 9 11 11 11 11 10 10 8 6 8 8 9 11 12 10 11 10 11 11 11 11 10 11 11 10 9 9 9 9 8 9 10 10 9 9 8 8 5 6 6 4 4 5 4 7 5 4 4 2 7 4 5 7 1 3 1 1 1 2 2 2 2 3 3 3 3 2 4 4 4 4 4
7 7 6 6 5 7 8 8 7 7 6 6 6 6 8 9 8 9 8 8 7 8 9 11 9 9 9 12 10 10 11 11 11 12 11 10 10 10 9 9 9 9 8 8 8 7 7 7 7 7 8 5 6 4 4 5 6 4 4 5 3 2 2 5 11 7 3 4 5 4 3 2 2 2 3 3 3 3 3 4 4 4 5 5 5
7 7 5 6 6 7 8 8 7 7 7 7 5 6 6 7 6 8 10 10 10 9 10 8 8 9 9 6 10 10 10 11 11 11 11 10 10 10 10 10 9 9 8 7 7 7 9 9 8 6 7 7 3 5 6 7 6 5 4 2 1 3 8 7 6 7 5 3 4 2 3 3 3 4 3 4 5 4 2 4 4 5 5 5 5
7 5 6 6 7 7 7 8 7 7 6 6 6 7 9 9 12 11 10 9 10 7 5 5 6 6 7 9 8 9 10 10 10 10 10 10 10 10 9 9 9 9 8 8 9 8 7 8 7 8 6 6 6 6 7 6 3 4 6 4 3 0 1 4 5 7 12 3 1 5 6 5 4 4 4 4 5 4 4 3 5 5 5 5 5
5 5 7 6 8 8 8 8 7 8 7 6 8 6 10 9 11 11 9 9 9 9 6 6 5 6 8 9 8 8 9 10 9 10 10 9 9 9 9 9 9 9 8 8 8 7 7 7 8 7 7 7 7 6 6 6 6 5 6 5 5 2 2 2 3 3 5 10 13 1 2 3 5 7 7 7 5 5 6 4 5 5 5 5 5
5 6 6 6 6 7 8 9 10 8 8 8 8 7 8 9 9 9 11 7 8 7 6 5 7 5 10 7 8 8 8 9 9 9 9 9 8 9 9 9 9 9 8 8 8 8 9 9 9 9 9 8 7 6 6 6 6 5 6 6 5 5 4 1 2 2 2 8 11 10 12 9 6 3 4 3 5 4 5 6 5 6 6 6 5
5 5 6 6 7 7 9 10 11 7 7 7 7 9 8 7 9 9 13 8 7 6 6 7 7 6 9 8 7 8 7 8 9 10 10 10 9 9 8 9 8 8 8 8 8 9 8 8 7 7 8 9 6 7 7 6 5 5 5 4 5 5 3 3 2 5 2 4 7 12 10 12 15 7 6 8 7 6 5 5 5 5 5 6 5
5 5 6 6 6 7 7 12 9 7 6 7 8 9 8 7 8 9 10 10 8 7 8 8 7 8 8 7 7 7 7 7 7 8 9 9 8 9 8 8 8 7 8 8 8 8 7 7 6 7 9 9 7 7 7 6 5 6 7 5 5 4 4 5 6 5 4 5 7 8 10 8 9 14 7 7 6 7 6 5 6 6 6 6 5
Wind_Direction
227 225 206 197 183 187 174 173 169 164 160 157 154 149 144 140 139 136 132 132 131 128 128 127 124 120 118 114 108 102 96 99 97 89 85 89 94 99 106 104 100 98 93 87 82 80 81 75 72 68 66 61 57 59 57 60 61 62 62 60 53 48 49 50 48 44 42 34 49 59 67 65 67 68 70 68 67 64 62 54 48 58 58 66 59
180 200 197 189 186 190 177 174 171 166 162 159 155 151 147 144 143 137 136 136 137 135 135 132 127 124 126 122 117 110 108 104 99 90 87 90 96 99 101 94 93 93 93 86 82 79 78 76 70 65 62 56 53 53 54 55 56 58 58 57 50 51 50 49 47 44 40 33 32 35 33 63 67 66 67 69 68 64 61 55 45 52 58 57 59
238 174 187 189 188 190 178 172 172 169 166 161 158 154 150 149 142 140 140 140 142 142 140 137 136 133 129 125 125 119 115 109 105 92 86 82 92 99 98 98 98 100 92 90 83 81 80 79 69 62 58 57 55 54 54 53 50 50 53 53 52 51 51 50 48 45 42 38 36 30 35 31 55 65 66 66 69 68 62 57 53 51 55 59 59
172 170 181 184 190 192 175 170 171 172 166 166 159 155 150 150 140 144 142 147 150 146 144 141 139 135 131 130 128 123 122 120 111 104 99 91 91 102 104 106 107 102 96 92 90 85 82 80 76 68 61 56 54 52 52 54 52 53 54 52 49 46 45 47 47 50 48 37 35 34 37 46 64 65 69 67 66 65 64 61 57 58 58 59 59
168 162 175 178 185 189 176 168 168 171 167 166 160 157 154 148 142 146 149 150 155 154 148 144 142 139 135 135 131 128 127 124 119 111 108 101 99 106 113 112 106 103 102 98 93 87 82 79 78 74 68 62 57 53 50 49 49 47 45 44 43 40 37 42 48 55 58 50 40 45 49 50 53 73 75 76 72 67 64 63 60 57 53 55 57
166 163 172 176 181 184 177 168 169 168 169 168 160 160 157 148 150 155 154 156 162 157 152 149 146 146 143 138 136 133 130 126 126 119 113 110 107 110 117 112 107 103 106 103 95 89 80 75 72 70 64 58 53 49 45 41 38 38 39 41 40 36 30 34 46 57 67 63 54 59 63 66 65 73 75 79 77 71 68 65 62 56 51 47 52
169 164 166 174 182 183 177 170 173 165 170 169 164 162 160 153 155 158 158 162 167 162 157 154 151 149 146 144 140 138 135 132 129 126 120 116 113 114 116 116 108 100 102 101 98 89 83 77 72 69 65 59 53 47 40 36 32 29 29 31 35 40 37 36 52 67 71 78 69 58 71 67 71 80 80 76 75 72 67 62 57 55 54 48 44
163 167 171 170 180 182 181 176 176 164 171 168 168 165 164 159 160 159 159 165 172 165 162 159 155 154 153 149 149 145 144 143 138 135 129 124 119 120 118 115 112 116 111 99 93 89 82 78 76 72 67 61 54 48 41 32 26 24 23 24 27 33 38 47 67 85 82 82 79 72 70 71 75 81 82 77 72 68 64 64 60 58 54 50 40
168 173 169 172 183 180 183 186 173 171 174 166 168 168 165 162 162 162 162 168 177 170 164 163 166 160 158 154 157 154 150 152 146 141 140 130 128 126 124 119 115 111 103 94 89 90 89 83 73 72 69 64 56 47 38 28 21 17 20 21 23 32 46 65 79 91 90 94 91 86 82 86 80 79 82 80 77 74 73 69 65 60 56 50 47
163 170 171 170 182 183 183 189 179 174 177 170 167 168 169 166 165 165 168 173 181 174 169 168 169 165 161 160 163 159 156 152 146 144 147 135 130 131 131 124 123 126 113 96 94 94 90 84 83 77 72 69 59 50 39 25 14 11 12 17 24 33 61 80 95 94 110 107 97 97 86 87 96 84 83 84 79 78 79 74 71 62 60 57 51
154 173 173 170 181 186 188 192 185 176 179 171 171 170 173 169 169 170 171 178 182 177 176 172 173 170 166 168 165 162 158 144 139 136 133 136 134 136 133 133 135 119 100 97 99 100 74 90 91 80 74 67 58 51 43 31 21 13 12 12 22 42 76 95 105 112 111 110 102 94 92 60 95 87 85 85 86 79 74 74 69 63 57 51 48
167 164 176 169 182 192 194 197 196 182 183 177 172 175 178 173 171 177 176 179 185 183 178 181 180 174 176 175 166 165 150 146 142 143 150 147 141 137 132 134 138 119 99 81 75 76 70 88 98 86 76 66 57 50 44 34 28 22 15 17 28 52 83 97 114 123 120 115 110 97 99 105 105 94 93 87 83 78 68 58 56 55 51 46 44
167 165 168 168 181 195 198 200 204 191 189 181 179 182 184 175 177 179 181 183 187 188 185 189 185 183 183 183 176 169 152 149 153 151 155 154 144 138 134 131 118 94 96 90 78 52 39 68 101 85 76 67 59 53 46 39 33 26 20 22 38 64 90 90 111 117 104 85 83 73 86 105 102 107 92 81 73 66 60 53 47 44 40 36 36
164 181 173 178 180 197 200 206 209 200 191 188 182 187 187 181 179 182 184 187 186 187 188 190 195 191 189 195 179 178 161 159 158 157 153 138 139 135 124 118 107 98 92 82 73 60 43 100 93 85 75 67 60 51 48 43 34 28 26 30 44 56 48 65 58 50 76 70 54 16 43 68 106 107 85 74 65 67 60 49 43 38 34 34 29
171 181 187 180 188 195 201 209 210 211 197 192 185 185 187 183 182 180 184 187 183 185 187 187 195 197 190 207 196 171 169 167 167 159 150 145 145 153 133 127 117 107 96 81 65 73 92 95 87 76 71 65 58 52 48 46 39 30 29 40 50 52 56 82 59 36 63 61 35 7 24 34 334 169 82 72 77 69 54 55 47 43 39 33 26
176 178 179 184 191 192 199 208 213 213 210 195 187 186 192 186 179 181 182 186 185 180 184 186 187 191 184 202 206 179 181 181 174 159 152 153 158 144 142 130 109 95 85 78 83 91 90 89 84 80 71 60 56 56 46 43 41 34 31 47 56 60 61 97 87 62 77 87 45 8 0 26 14 56 99 98 109 88 65 53 48 34 31 29 16
163 167 182 193 191 203 203 205 208 212 216 208 190 184 188 189 181 183 186 186 187 181 180 184 187 184 186 205 191 148 170 190 161 157 155 157 160 152 148 126 110 101 92 88 89 89 87 85 81 72 68 61 57 52 49 46 43 37 37 53 60 63 53 92 79 82 68 50 66 16 325 63 18 350 289 295 86 85 64 46 28 36 22 9 28
38 192 214 213 210 212 215 213 210 212 211 208 204 194 183 186 186 184 186 186 187 188 179 176 185 188 174 142 116 144 155 161 147 148 146 147 154 131 135 118 110 105 100 91 94 90 87 84 79 73 63 62 53 47 40 46 42 40 46 53 56 58 60 75 92 69 45 3 43 22 345 55 27 17 38 45 52 63 51 6 357 16 19 31 27
10 359 281 260 234 237 228 222 216 214 212 206 196 193 195 180 183 182 186 185 188 189 184 177 176 182 174 122 151 164 167 145 131 148 147 148 133 121 115 116 121 111 99 94 98 93 87 83 79 75 68 60 55 41 30 34 41 40 48 52 45 45 52 63 58 75 58 56 29 31 6 358 309 290 21 52 68 75 13 346 1 1 37 20 44
16 13 350 304 284 243 242 231 220 214 214 211 193 177 192 187 180 184 189 191 185 186 180 174 172 173 153 156 160 144 163 147 143 155 161 143 132 122 114 111 103 97 99 103 99 96 92 87 79 73 71 67 56 46 30 29 32 37 44 44 39 30 44 44 51 62 53 44 23 29 348 354 294 254 242 1 11 345 1 14 357 1 336 24 56
16 5 320 322 294 256 239 236 227 219 215 208 198 192 179 185 174 182 189 187 183 187 184 171 165 149 142 146 151 150 168 147 155 172 153 144 135 123 116 103 94 86 93 98 106 110 103 93 83 78 76 67 59 48 34 27 22 24 28 32 26 37 29 28 31 42 30 14 15 24 350 344 348 292 301 262 307 350 34 11 355 22 38 52 54
334 332 332 303 302 262 240 233 226 221 216 205 196 191 172 184 187 179 193 189 178 185 210 202 169 169 141 143 163 156 164 181 150 150 146 161 130 124 122 113 106 116 100 80 118 114 113 103 94 89 78 71 60 48 34 23 25 19 18 14 27 27 15 11 18 25 14 20 356 357 350 354 345 293 296 337 354 33 28 22 61 23 8 341 93
345 343 327 340 297 269 246 226 224 214 215 215 199 183 178 173 196 173 183 199 188 182 192 199 188 181 183 184 168 173 158 153 177 134 104 179 157 141 130 125 132 106 61 88 115 116 108 105 100 91 82 72 65 51 45 29 16 14 16 18 20 18 6 7 18 11 11 355 346 353 352 359 343 320 328 338 22 48 343 276 99 57 72 25 66
325 323 313 307 297 270 253 241 226 214 210 212 207 189 179 163 177 186 188 201 231 206 175 187 200 191 145 158 166 164 172 183 146 137 133 129 99 121 136 134 137 86 101 106 112 123 103 87 93 87 76 63 69 53 47 50 28 16 13 14 11 9 7 4 7 8 359 1 354 350 354 356 357 335 319 336 353 90 281 229 218 56 39 234 260
317 309 305 310 315 299 263 244 229 216 209 212 203 193 176 173 173 164 178 198 232 205 203 188 192 178 173 176 179 169 175 172 152 151 152 144 143 150 178 158 165 127 139 150 124 105 102 111 81 68 76 79 69 53 36 41 40 26 18 8 3 360 360 5 358 356 2 356 357 354 356 353 351 336 313 297 304 258 256 274 68 134 32 330 319
301 321 324 314 313 306 281 252 230 215 209 203 210 191 165 185 175 180 182 185 195 238 228 209 199 181 183 181 174 169 165 157 152 148 138 151 157 188 190 180 133 139 184 125 143 141 126 113 93 90 79 73 70 67 50 40 39 34 23 13 4 356 353 355 355 355 0 349 353 353 353 350 344 344 332 309 268 276 265 277 199 215 172 185 301
338 339 333 324 316 309 297 260 235 215 204 187 197 189 185 171 178 179 210 221 253 241 69 325 212 206 199 182 173 177 174 169 183 183 173 169 156 146 210 216 156 115 66 110 86 104 107 111 103 86 90 86 81 65 61 54 40 33 40 26 9 358 351 350 352 351 348 349 340 349 349 344 342 338 334 318 293 246 266 271 270 266 177 201 185
353 351 343 333 331 325 307 279 237 222 199 188 192 194 174 162 173 173 207 220 209 200 93 113 65 250 205 197 199 184 175 181 190 200 208 169 180 125 95 52 64 70 68 89 103 90 116 105 115 105 99 73 77 64 63 59 50 32 24 25 10 4 355 347 345 342 341 340 342 344 343 343 340 336 330 319 309 310 310 289 277 293 301 177 183
1 353 340 341 339 330 319 280 225 236 181 174 184 176 158 169 222 188 194 147 175 200 176 137 122 160 64 326 235 187 192 188 184 166 143 126 104 117 121 137 114 111 109 67 72 76 89 103 96 103 86 85 85 71 51 63 42 42 30 14 11 2 357 347 346 338 337 334 335 336 338 343 339 335 331 327 321 320 316 313 305 279 274 181 180
356 343 339 336 340 341 348 338 223 211 221 158 178 150 150 145 164 226 345 179 193 181 121 103 91 67 40 121 113 272 195 188 177 152 158 155 147 133 139 180 147 154 160 148 144 141 133 144 116 96 97 90 88 66 38 47 49 24 20 16 20 353 338 342 327 330 322 321 323 322 335 342 341 337 335 333 326 320 316 311 315 314 316 302 254
352 356 348 345 335 357 16 16 103 39 324 107 129 117 95 113 112 153 136 93 27 37 47 106 125 94 123 107 142 143 189 116 136 138 180 162 151 128 129 184 165 171 175 129 124 132 126 118 104 103 118 139 104 70 33 29 33 48 21 359 359 313 308 266 252 288 310 310 309 316 318 335 339 335 334 332 330 327 326 323 320 322 324 322 328
359 353 346 341 349 5 21 36 68 55 5 134 88 79 103 99 90 62 52 52 57 50 27 39 25 31 35 39 37 16 14 37 83 135 319 242 152 142 151 180 153 111 58 79 93 100 109 94 98 109 116 127 125 109 73 4 351 22 343 344 310 301 302 298 275 242 242 261 280 293 311 316 319 326 330 331 330 333 329 328 326 328 325 325 328
345 348 346 356 2 354 14 28 57 59 54 65 87 112 67 57 44 41 43 45 44 42 39 36 36 39 40 37 39 39 40 51 54 49 80 48 21 6 18 20 64 91 99 107 118 115 112 114 94 119 118 126 121 123 136 159 289 312 306 327 307 300 314 297 297 287 263 246 244 259 290 304 304 313 323 331 335 333 330 328 331 327 326 324 326
345 346 358 11 2 5 10 29 38 56 58 56 50 47 55 61 54 53 45 44 43 50 47 43 42 41 43 38 34 39 46 53 56 55 48 57 52 50 39 42 48 56 55 52 60 51 87 100 94 140 120 92 51 32 335 309 306 290 280 296 277 279 287 271 261 269 272 263 260 268 268 268 294 301 314 321 332 330 330 329 326 328 327 326 327
352 358 14 3 18 22 20 39 41 51 52 57 65 64 54 56 54 52 55 57 51 52 46 45 45 42 51 48 39 39 49 52 53 68 60 62 66 70 37 49 54 61 57 35 49 43 37 42 22 354 13 19 12 12 357 339 329 325 324 316 297 295 261 265 261 259 261 278 281 287 279 264 249 275 281 297 313 320 328 327 327 326 326 332 333
7 357 358 9 33 36 32 44 47 55 62 67 67 74 76 70 68 65 65 60 58 49 47 43 40 40 44 46 41 26 46 44 45 58 75 67 73 75 64 70 75 79 76 69 71 67 65 72 62 32 0 1 358 2 15 347 335 322 319 307 299 290 288 277 275 269 256 262 252 245 244 256 255 246 254 276 294 310 318 325 325 324 330 337 334
3 6 6 19 35 36 37 48 47 55 67 70 73 71 73 70 66 65 64 61 57 50 53 47 42 40 38 43 34 28 38 45 43 42 57 55 52 59 48 52 56 65 71 71 70 90 103 116 131 130 126 195 341 316 328 1 330 313 307 306 301 300 289 288 275 272 264 255 264 248 243 242 246 253 252 277 269 281 303 311 322 328 336 337 331
7 14 14 17 24 19 24 32 43 58 66 74 76 74 72 73 67 67 60 59 51 49 47 43 40 39 41 40 31 34 36 47 44 42 57 60 57 54 49 44 54 60 59 66 70 36 45 32 64 30 103 122 172 218 258 240 212 280 299 305 305 296 283 279 276 277 273 286 279 281 278 283 272 274 292 300 305 299 303 305 321 324 330 328 325
15 16 20 20 25 25 26 31 24 23 37 56 73 79 78 76 70 64 61 59 54 52 49 46 34 36 37 31 25 31 27 34 40 37 46 45 50 44 43 31 41 51 58 35 44 44 37 26 52 66 31 351 337 319 310 300 297 283 277 283 282 270 275 279 284 282 306 300 292 280 290 288 311 322 325 322 307 313 325 323 319 315 306 317 317
20 20 27 28 26 25 22 34 25 15 39 46 51 66 63 58 64 58 52 41 43 45 46 43 33 38 31 33 32 31 27 30 27 25 40 40 42 36 37 30 33 44 47 42 34 38 25 39 40 20 3 1 19 340 307 303 291 284 291 291 260 277 271 269 284 320 304 283 279 287 304 323 299 313 320 316 320 325 318 308 291 292 298 296 303
28 22 34 31 31 23 34 37 22 28 45 53 50 50 68 79 61 59 63 48 47 53 52 41 43 40 37 39 38 37 32 34 31 32 34 44 46 43 43 39 43 51 57 57 49 44 32 34 32 29 6 351 25 1 323 317 325 323 323 278 295 245 264 315 320 295 276 272 284 321 317 295 292 322 335 327 320 314 296 286 284 282 276 280 280
12 22 33 29 33 34 46 40 29 45 45 54 72 67 59 66 85 73 78 57 47 47 49 43 43 44 43 42 42 41 44 46 43 44 46 45 45 44 41 37 32 41 49 43 39 37 26 27 13 17 53 11 3 356 342 312 26 360 326 326 282 297 293 65 343 10 308 331 339 283 273 273 313 329 301 293 282 273 273 280 280 279 279 283 284
22 32 25 41 37 39 37 39 39 46 48 55 67 77 73 67 82 83 78 81 62 63 65 58 49 54 47 43 41 39 39 41 36 39 42 37 41 44 39 38 38 31 40 40 36 36 28 27 23 24 356 46 353 24 359 13 342 315 255 291 349 335 2 42 17 319 324 6 313 311 309 303 310 306 302 291 283 279 273 280 280 279 285 284 286
26 28 24 41 44 43 40 41 42 41 48 50 77 83 86 89 81 86 82 77 82 76 73 57 51 50 46 41 42 39 40 44 36 36 41 40 38 40 38 38 38 34 38 41 33 30 24 22 20 25 23 20 12 12 41 12 16 344 354 358 319 358 318 61 348 309 333 309 333 337 27 327 322 300 292 287 291 288 288 286 279 275 275 276 278
28 29 22 36 47 50 51 51 50 47 48 49 60 94 106 94 97 93 93 98 73 59 53 45 42 49 52 39 36 37 41 45 39 39 41 42 39 39 41 39 41 34 38 43 40 33 30 30 20 29 33 27 15 1 11 14 8 39 354 335 331 319 19 335 337 313 27 4 310 358 347 344 334 334 322 306 305 293 296 285 275 278 270 268 263
30 17 13 36 53 60 61 61 61 52 49 57 67 78 74 92 95 78 66 62 60 45 46 46 40 42 51 49 44 39 42 47 44 42 41 41 42 38 39 42 39 36 36 45 38 31 27 24 19 23 30 25 22 29 11 359 15 41 44 92 164 323 328 335 346 318 318 234 299 301 345 341 3 342 332 313 312 307 292 286 280 280 275 266 263
21 5 21 44 58 67 70 70 69 64 49 57 64 86 81 76 78 82 87 83 94 73 72 60 66 64 63 53 50 44 40 46 46 45 44 44 46 42 42 43 42 39 31 38 38 31 27 26 11 28 27 18 22 42 28 356 357 42 12 9 18 33 343 329 336 323 321 340 87 335 331 337 1 347 318 302 301 301 291 277 280 272 274 269 269
6 13 41 38 54 59 69 70 68 66 53 57 68 63 91 93 95 92 86 89 84 98 87 81 71 69 67 56 54 49 44 43 44 43 42 42 42 45 41 43 45 39 34 39 36 25 29 29 32 30 32 33 25 33 25 22 26 359 353 9 4 21 90 204 214 293 294 305 314 308 188 17 338 315 298 298 296 289 291 287 279 276 268 266 262
14 28 35 41 49 59 67 66 61 58 50 51 72 66 81 94 95 105 95 82 91 96 99 83 77 66 71 58 56 52 51 47 45 44 42 42 40 43 40 43 43 39 36 36 33 30 31 29 22 25 25 28 30 20 30 22 13 16 350 5 352 4 336 83 93 123 313 311 297 320 320 316 278 239 298 294 289 280 273 280 279 277 275 271 263
8 23 40 47 51 63 70 69 62 55 54 64 75 75 72 80 87 87 95 98 94 93 82 75 68 58 67 57 53 51 45 44 41 39 39 37 38 35 37 39 38 38 38 36 28 27 26 30 30 30 26 31 28 29 35 19 19 14 19 356 8 348 353 27 59 357 294 207 287 311 313 324 325 328 331 307 302 294 283 279 278 268 271 270 268
21 39 52 51 61 72 80 75 61 61 58 69 74 74 71 67 81 85 91 97 91 88 81 67 62 57 63 57 55 57 53 51 46 44 43 37 39 38 36 36 37 36 35 30 28 23 19 18 19 27 32 28 20 17 24 31 22 20 15 15 9 6 356 339 331 335 326 307 306 299 307 300 293 307 320 315 303 289 285 286 280 279 276 276 274